Regional Weather Roundup
Issued by NWS

Home | Current Version | Previous Version | Graphics & Text | Print | Product List | Glossary Off
Versions: 1 2 3 4 5 6 7 8 9 10 11 12 13 14 15 16 17 18 19 20 21 22 23 24 25 26 27 28 29 30 31 32 33 34 35 36 37 38 39 40 41 42 43 44 45 46 47 48 49 50

000
ASUS43 KDMX 300107
RWRIA

WEATHER ROUNDUP FOR IOWA
NATIONAL WEATHER SERVICE DES MOINES IA
800 PM CDT MON SEP 29 2014

NOTE: "FAIR" INDICATES FEW OR NO CLOUDS BELOW 12,000 FEET WITH NO
SIGNIFICANT WEATHER AND/OR OBSTRUCTIONS TO VISIBILITY.

* - THESE STATIONS ARE NOT NWS STATIONS...THUS NOT UNDER NWS
QUALITY CONTROL.  THEY ALSO DO NOT REPORT WEATHER SUCH
AS PRECIPITATION OR FOG.

IAZ001>003-012>014-020>022-031>034-043>046-300200-
   NORTHWEST IOWA

CITY           SKY/WX    TMP DP  RH WIND       PRES   REMARKS
CARROLL *      PTCLDY    64  61  88 NE6       29.99R
CHEROKEE *     CLEAR     61  59  94 NE8       30.00S
DENISON *      CLEAR     66  63  88 NE10G16   29.96S
LE MARS *      CLEAR     64  59  82 E7        29.98S
ORANGE CITY *  CLEAR     64  57  77 E8        29.99F
SHELDON *      CLEAR     61  57  88 E9        30.00S
SIOUX CITY     CLEAR     69  62  78 E12       29.95S
SPENCER        CLEAR     59  55  87 E6        30.02F
STORM LAKE *   MOCLDY    61  59  94 NE13      30.02R
$$

IAZ055>058-069>071-079>083-090>094-300200-
   SOUTHWEST IOWA

CITY           SKY/WX    TMP DP  RH WIND       PRES   REMARKS
ATLANTIC *     CLOUDY    73  63  68 NE7       29.95S
AUDUBON *      PTCLDY    72  61  68 NE6       29.98S
CLARINDA *     CLEAR     63  57  82 CALM      29.96S
COUNCIL BLFS *   N/A     72  61  68 SE5       29.93F
CRESTON *      CLEAR     70  59  68 SE6       29.97F
HARLAN  *      PTCLDY    68  63  83 N3        29.99S
LAMONI         CLEAR     75  55  49 CALM      29.97F
RED OAK *      CLEAR     70  59  68 CALM      29.95S HAZE
SHENANDOAH *   CLEAR     70  57  64 SE6       29.95S
$$

IAZ047>049-059>061-072>074-084-300200-
   CENTRAL IOWA

CITY           SKY/WX    TMP DP  RH WIND       PRES   REMARKS
AMES           CLEAR     68  61  78 N14       29.98R
ANKENY *       MOCLDY    72  63  73 NE7       29.96S
CHARITON *     CLEAR     72  63  73 S6        29.96F
DES MOINES     PTCLDY    76  62  62 CALM      29.95F
GRINNELL*      CLEAR     70  61  73 N3        29.98R
KNOXVILLE *    PTCLDY    72  61  68 S3        29.95S
MARSHALLTOWN   CLEAR     64  59  83 N8        29.99R
PELLA *        MOCLDY    72  61  68 N3        29.96S
PERRY *        CLOUDY    72  63  73 NE7       29.98R
$$

IAZ004>006-015-016-023>025-035-036-300200-
   NORTH CENTRAL IOWA

CITY           SKY/WX    TMP DP  RH WIND       PRES   REMARKS
ALGONA *       CLEAR     59  55  88 NE10      30.03S
CLARION *      CLEAR     59  57  94 NE5       30.02S
ESTHERVILLE    CLEAR     57  52  83 NE10      30.03S
FORT DODGE *   CLOUDY    63  57  82 NE7       30.03R
MASON CITY     CLEAR     57  51  80 NE7       30.06R
FOREST CITY *  CLEAR     57  52  82 NE8       30.04R
IOWA FALLS *     N/A     61  57  88 N5        30.02S
$$

IAZ007>011-017>019-026>030-037>042-050>054-066-300200-
   NORTHEAST IOWA

CITY           SKY/WX    TMP DP  RH WIND       PRES   REMARKS
CHARLES CITY * CLEAR     55  50  82 NE12      30.05R
CLINTON *      PTCLDY    70  55  60 W5        29.96S
DECORAH *      CLOUDY    54  50  87 VRB5G12   30.06R
MONTICELLO *   CLOUDY    68  61  77 N10       29.98R
OELWEIN *      PTCLDY    61  55  82 N12       30.02R
WATERLOO       CLEAR     62  55  77 N9        30.00R
$$

IAZ064-065-067-068-078-300200-
   EAST CENTRAL IOWA

CITY           SKY/WX    TMP DP  RH WIND       PRES   REMARKS
IOWA CITY      CLOUDY    71  64  78 W3        29.95S
MT. PLEASANT * CLEAR     72  57  60 W3        29.95S
MUSCATINE *    PTCLDY    72  61  68 CALM      29.94S
$$

IAZ062-063-075>077-085>089-095>099-300200-
   SOUTHEAST IOWA

CITY           SKY/WX    TMP DP  RH WIND       PRES   REMARKS
BURLINGTON     CLEAR     71  61  70 SW3       29.95S
FAIRFIELD *    CLEAR     72  59  64 SW3       29.95F
FORT MADISON * CLEAR     75  57  53 CALM      29.97S
KEOKUK *       CLEAR     68  63  83 CALM      29.95S
OSKALOOSA *      N/A     72  59  64 W5        29.96S
CENTERVILLE *  CLEAR     64  61  88 CALM      29.98F
OTTUMWA        CLEAR     67  60  78 SW3       29.95F
WASHINGTON *   PTCLDY    72  61  68 SW6       29.95S
$$

ABBREVIATIONS USED IN REMARKS
   TC - TEMPERATURES IN CELSIUS
  WCI - WIND CHILL INDEX
   HX - HEAT INDEX
  VSB - VISIBILITY
$$



USA.gov is the U.S. government's official web portal to all federal, state and local government web resources and services.